Munising, MI

8:01 PM EDT on May 27, 2017 (GMT -0400)
Munising

Weather History for KP53 - August, 2013

Change the Weather History Date:

Monday, August 12, 2013

  Actual Average (KISQ) Record (KISQ)
Temperature  
Mean Temperature 63 °F -  
Max Temperature 72 °F 74 °F 86 °F (1988)
Min Temperature 55 °F 53 °F 39 °F (1950)
Degree Days  
Heating Degree Days 2    
Growing Degree Days 13 (Base 50)    
Moisture  
Dew Point 54 °F    
Average Humidity 80    
Maximum Humidity 90    
Minimum Humidity 63    
Precipitation  
Precipitation 0.02 in - - ()
Sea Level Pressure  
Sea Level Pressure 29.96 in    
Wind  
Wind Speed 9 mph (NW)    
Max Wind Speed 22 mph    
Max Gust Speed 23 mph    
Averages and records for this station are not official NWS values.
T = Trace of Precipitation, MM = Missing Value Source: NWS Daily Summary

Daily Weather History Graph

Daily Weather History Graph

Search for Another Location

Airport or City:

Trip Planner

Search our weather history database for the weather conditions in past years. The results will help you decide how hot, cold, wet, or windy it might be!

Date:

Astronomy

Aug. 12, 2013 Rise Set
Actual Time 6:41 AM EDT 9:00 PM EDT
Civil Twilight 6:08 AM EDT 9:33 PM EDT
Nautical Twilight 5:26 AM EDT 10:15 PM EDT
Astronomical Twilight 4:39 AM EDT 11:01 PM EDT
Moon 12:56 PM EDT (8/12) 11:27 PM EDT (8/12)
Length of Visible Light 15h 25m
Length of Day
14h 18m
Waxing Crescent, 31% of the Moon is Illuminated
Aug 12
Waxing Crescent
Aug 14
First Quarter
Aug 20
Full
Aug 28
Last Quarter
Sep 5
New

Hourly Weather History & Observations

Time (EDT) Temp. Dew Point Humidity Pressure Visibility Wind Dir Wind Speed Gust Speed Precip Events Conditions
12:56 AM 59.0 °F 55.0 °F 87% 29.99 in - South 6.9 mph - N/A   Unknown
1:56 AM 57.0 °F 54.0 °F 89% 29.99 in - South 8.1 mph - N/A   Unknown
2:56 AM 57.0 °F 54.0 °F 89% 29.97 in - South 5.8 mph - N/A   Unknown
3:56 AM 55.9 °F 53.1 °F 90% 29.97 in - SSE 5.8 mph - N/A   Unknown
4:56 AM 55.9 °F 53.1 °F 90% 29.96 in - South 5.8 mph - N/A   Unknown
5:56 AM 57.0 °F 54.0 °F 89% 29.96 in - SSE 4.6 mph - N/A   Unknown
6:56 AM 57.9 °F 54.0 °F 87% 29.95 in - Calm Calm - N/A   Unknown
7:56 AM 59.0 °F 55.0 °F 87% 29.94 in - South 3.5 mph - 0.02 in   Unknown
8:56 AM 62.1 °F 57.0 °F 84% 29.92 in - South 3.5 mph - N/A   Unknown
9:56 AM 68.0 °F 57.9 °F 70% 29.91 in - South 3.5 mph - N/A   Unknown
10:56 AM 70.0 °F 61.0 °F 73% 29.90 in - NE 4.6 mph - N/A   Unknown
11:56 AM 71.1 °F 59.0 °F 66% 29.90 in - NNW 10.4 mph - N/A   Unknown
12:56 PM 69.1 °F 55.9 °F 63% 29.90 in - NNW 12.7 mph - N/A   Unknown
1:56 PM 69.1 °F 57.9 °F 68% 29.90 in - NW 12.7 mph - N/A   Unknown
2:56 PM 63.0 °F 55.9 °F 78% 29.94 in - NNW 16.1 mph - N/A   Unknown
3:56 PM 60.1 °F 55.9 °F 86% 29.94 in - NNW 16.1 mph 23.0 mph N/A   Unknown
4:56 PM 60.1 °F 54.0 °F 80% 29.96 in - NW 15.0 mph - N/A   Unknown
5:56 PM 57.9 °F 52.0 °F 81% 29.98 in - NNW 17.3 mph - N/A   Unknown
6:56 PM 59.0 °F 50.0 °F 72% 29.99 in - North 21.9 mph - N/A   Unknown
7:56 PM 57.0 °F 50.0 °F 77% 30.00 in - NNW 17.3 mph - N/A   Unknown
8:56 PM 55.9 °F 50.0 °F 80% 30.00 in - North 17.3 mph - N/A   Unknown
9:56 PM 55.9 °F 50.0 °F 80% 30.00 in - North 12.7 mph - N/A   Unknown
10:56 PM 55.9 °F 50.0 °F 80% 30.01 in - NNW 10.4 mph - N/A   Unknown
11:56 PM 55.9 °F 48.9 °F 77% 30.03 in - NNW 12.7 mph - N/A   Unknown